This demonstration page uses our WeatherBlox Daily Observations layout. Learn more.

Left ArrowRight Arrow

Hourly Observations for May 13, 2021

Temp ( °F °C ) Dew Point ( °F °C ) Humidity (%) Winds ( mph kmh ) Pressure ( in mb ) Visibility ( mi km ) Precip ( " mm )
12:51 am 00:51 Clear 70 21.1 11 -11.7 10 10 E 8 13 29.9 1013 10 16.0934 N/A
1:51 am 01:51 Clear 67 19.4 11 -11.7 11 11 N N/A 29.9 1012 10 16.0934 N/A
2:51 am 02:51 Clear 61 16.1 9 -12.8 13 13 W 5 7 29.91 1013 10 16.0934 N/A
3:51 am 03:51 Clear 61 16.1 11 -11.7 14 14 N 7 11 29.92 1013 10 16.0934 N/A
4:51 am 04:51 Clear 66 18.9 11 -11.7 11 11 N N/A 29.93 1013 10 16.0934 N/A
5:51 am 05:51 Sunny 60 15.6 15 -9.4 17 17 N N/A 29.95 1014 10 16.0934 N/A
6:51 am 06:51 Sunny 70 21.1 16 -8.9 12 12 N N/A 29.96 1014 10 16.0934 N/A
7:51 am 07:51 Sunny 74 23.3 23 -5 15 15 SSE 13 20 29.98 1015 10 16.0934 N/A
8:51 am 08:51 Sunny 78 25.6 32 undefined 19 19 SE 9 15 29.98 1015 10 16.0934 N/A
9:51 am 09:51 Sunny 83 28.3 38 3.3 20 20 SE 8 13 29.97 1015 10 16.0934 N/A
10:51 am 10:51 Sunny 87 30.6 40 4.4 19 19 SE 12 19 29.95 1014 10 16.0934 N/A
11:51 am 11:51 Sunny 89 31.7 36 2.2 15 15 ESE 7 11 29.91 1013 10 16.0934 N/A
12:51 pm 12:51 Sunny 92 33.3 30 -1.1 11 11 undefined N/A 29.88 1012 10 16.0934 N/A
1:51 pm 13:51 Sunny 93 33.9 23 -5 8 8 NNW 3 6 29.85 1011 10 16.0934 N/A
2:51 pm 14:51 Sunny 95 35 21 -6.1 7 7 N N/A 29.82 1010 10 16.0934 N/A
3:51 pm 15:51 Sunny 96 35.6 20 -6.7 6 6 VRB 3 6 29.78 1008 10 16.0934 N/A
4:51 pm 16:51 Sunny 96 35.6 18 -7.8 6 6 WNW 7 11 29.75 1007 10 16.0934 N/A
5:51 pm 17:51 Sunny 94 34.4 16 -8.9 6 6 VRB 3 6 29.75 1008 10 16.0934 N/A
6:51 pm 18:51 Sunny 92 33.3 16 -8.9 6 6 N N/A 29.74 1007 10 16.0934 N/A
7:51 pm 19:51 Clear 84 28.9 14 -10 7 7 WNW 8 13 29.76 1008 10 16.0934 N/A
8:51 pm 20:51 Clear 83 28.3 15 -9.4 8 8 NW 9 15 29.77 1008 10 16.0934 N/A
9:51 pm 21:51 Clear 78 25.6 15 -9.4 9 9 WNW 12 19 29.78 1009 10 16.0934 N/A
10:51 pm 22:51 Clear 77 25 15 -9.4 9 9 WNW 12 19 29.79 1009 10 16.0934 N/A
11:51 pm 23:51 Clear 73 22.8 14 -10 10 10 NW 9 15 29.79 1009 10 16.0934 N/A

Powered by AerisWeather